• In Russia
  • List of Countries
  • For 7 days
  • Water Temperature
  • Satellite Maps
  • Weather Map
  • Weather Widgets
  • user-avatar
    Login

    Hourly Weather Townsville

    Today, 27 March, Monday

    Time Temperature Precipitation Wind Pressure Humidity
    00:00 +28°C° 0 mm 6 mps 749 mmHg 78%
    01:00 +27°C° 0 mm 7 mps 749 mmHg 79%
    02:00 +27°C° 0 mm 7 mps 749 mmHg 80%
    03:00 +27°C° 0 mm 7 mps 748 mmHg 81%
    04:00 +27°C° 0 mm 6 mps 748 mmHg 80%
    05:00 +27°C° 0 mm 7 mps 748 mmHg 80%
    06:00 +26°C° 0 mm 8 mps 748 mmHg 80%
    07:00 +26°C° 0 mm 8 mps 748 mmHg 81%
    08:00 +28°C° 0 mm 8 mps 748 mmHg 76%
    09:00 +29°C° 0 mm 8 mps 748 mmHg 72%
    10:00 +30°C° 0 mm 7 mps 749 mmHg 69%
    11:00 +30°C° 0 mm 7 mps 748 mmHg 70%
    12:00 +30°C° 0 mm 7 mps 747 mmHg 71%
    13:00 +30°C° 0 mm 7 mps 747 mmHg 72%
    14:00 +30°C° 0 mm 7 mps 746 mmHg 72%
    15:00 +30°C° 0 mm 7 mps 746 mmHg 72%
    16:00 +30°C° 0 mm 7 mps 746 mmHg 71%
    17:00 +30°C° 0 mm 7 mps 746 mmHg 71%
    18:00 +29°C° 0 mm 7 mps 746 mmHg 72%
    19:00 +29°C° 0 mm 7 mps 746 mmHg 72%
    20:00 +29°C° 0 mm 7 mps 746 mmHg 72%
    21:00 +29°C° 0 mm 8 mps 746 mmHg 72%
    22:00 +29°C° 0 mm 7 mps 746 mmHg 73%
    23:00 +29°C° 0.1 mm 8 mps 745 mmHg 75%

    Tomorrow, 28 March, Tuesday

    Time Temperature Precipitation Wind Pressure Humidity
    00:00 +28°C° 0.1 mm 8 mps 745 mmHg 77%
    01:00 +28°C° 0.1 mm 9 mps 745 mmHg 80%
    02:00 +28°C° 0.2 mm 9 mps 744 mmHg 80%
    03:00 +27°C° 0.2 mm 9 mps 744 mmHg 81%
    04:00 +27°C° 0.2 mm 9 mps 744 mmHg 82%
    05:00 +27°C° 0.2 mm 10 mps 744 mmHg 82%
    06:00 +27°C° 0.2 mm 10 mps 744 mmHg 82%
    07:00 +26°C° 0.2 mm 10 mps 743 mmHg 82%
    08:00 +27°C° 0.3 mm 10 mps 743 mmHg 81%
    09:00 +27°C° 0.3 mm 10 mps 743 mmHg 81%
    10:00 +27°C° 0.3 mm 10 mps 742 mmHg 80%
    11:00 +27°C° 0.4 mm 10 mps 742 mmHg 79%
    12:00 +28°C° 0.4 mm 11 mps 742 mmHg 78%
    13:00 +28°C° 0.4 mm 11 mps 741 mmHg 77%
    14:00 +28°C° 0.6 mm 10 mps 741 mmHg 77%
    15:00 +28°C° 0.6 mm 9 mps 740 mmHg 78%
    16:00 +28°C° 0.6 mm 8 mps 740 mmHg 79%
    17:00 +27°C° 0.6 mm 8 mps 740 mmHg 80%
    18:00 +27°C° 0.6 mm 8 mps 740 mmHg 82%
    19:00 +27°C° 0.6 mm 8 mps 741 mmHg 84%
    20:00 +27°C° 0.5 mm 8 mps 741 mmHg 85%
    21:00 +26°C° 0.5 mm 8 mps 742 mmHg 86%
    22:00 +26°C° 0.5 mm 7 mps 742 mmHg 88%
    23:00 +26°C° 0.4 mm 7 mps 742 mmHg 88%

    Day after tomorrow, 29 March, Wednesday

    Time Temperature Precipitation Wind Pressure Humidity
    00:00 +26°C° 0.4 mm 7 mps 742 mmHg 88%
    01:00 +26°C° 0.4 mm 7 mps 742 mmHg 88%
    02:00 +26°C° 0.4 mm 7 mps 742 mmHg 89%
    03:00 +26°C° 0.4 mm 6 mps 742 mmHg 89%
    04:00 +26°C° 0.4 mm 6 mps 742 mmHg 89%
    05:00 +26°C° 0.5 mm 6 mps 743 mmHg 89%
    06:00 +26°C° 0.5 mm 6 mps 744 mmHg 90%
    07:00 +26°C° 0.5 mm 6 mps 745 mmHg 90%
    08:00 +27°C° 0.2 mm 6 mps 745 mmHg 88%
    09:00 +27°C° 0.2 mm 5 mps 746 mmHg 85%
    10:00 +28°C° 0.2 mm 5 mps 747 mmHg 83%
    11:00 +29°C° 0.2 mm 5 mps 746 mmHg 80%
    12:00 +30°C° 0.2 mm 5 mps 746 mmHg 77%
    13:00 +32°C° 0.2 mm 5 mps 746 mmHg 73%
    14:00 +32°C° 0.8 mm 6 mps 746 mmHg 75%
    15:00 +32°C° 0.8 mm 6 mps 745 mmHg 76%
    16:00 +32°C° 0.8 mm 6 mps 745 mmHg 77%
    17:00 +30°C° 1 mm 6 mps 746 mmHg 81%
    18:00 +29°C° 1 mm 6 mps 746 mmHg 85%
    19:00 +28°C° 1 mm 6 mps 747 mmHg 88%
    20:00 +28°C° 0.8 mm 6 mps 747 mmHg 88%
    21:00 +28°C° 0.8 mm 7 mps 748 mmHg 88%
    22:00 +28°C° 0.8 mm 7 mps 749 mmHg 88%
    23:00 +28°C° 0.4 mm 7 mps 749 mmHg 88%

    30 March, Thursday

    Time Temperature Precipitation Wind Pressure Humidity
    00:00 +28°C° 0.4 mm 7 mps 748 mmHg 89%
    01:00 +28°C° 0.4 mm 7 mps 748 mmHg 89%
    02:00 +28°C° 0.6 mm 6 mps 748 mmHg 88%
    03:00 +28°C° 0.6 mm 6 mps 748 mmHg 88%
    04:00 +28°C° 0.6 mm 6 mps 748 mmHg 87%
    05:00 +27°C° 0.2 mm 5 mps 748 mmHg 87%
    06:00 +27°C° 0.2 mm 5 mps 749 mmHg 87%
    07:00 +27°C° 0.2 mm 5 mps 749 mmHg 87%
    08:00 +29°C° 0 mm 5 mps 750 mmHg 78%
    09:00 +32°C° 0 mm 4 mps 750 mmHg 68%
    10:00 +35°C° 0 mm 4 mps 751 mmHg 58%
    11:00 +36°C° 0 mm 4 mps 750 mmHg 54%
    12:00 +37°C° 0 mm 4 mps 749 mmHg 49%
    13:00 +38°C° 0 mm 4 mps 749 mmHg 44%
    14:00 +39°C° 0 mm 5 mps 748 mmHg 45%
    15:00 +37°C° 0 mm 5 mps 748 mmHg 46%
    16:00 +37°C° 0 mm 5 mps 748 mmHg 47%
    17:00 +35°C° 0.4 mm 5 mps 748 mmHg 58%
    18:00 +32°C° 0.4 mm 4 mps 749 mmHg 69%
    19:00 +29°C° 0.4 mm 4 mps 749 mmHg 81%
    20:00 +29°C° 0.5 mm 4 mps 750 mmHg 84%
    21:00 +28°C° 0.5 mm 4 mps 750 mmHg 87%
    22:00 +28°C° 0.5 mm 4 mps 751 mmHg 90%
    23:00 +28°C° 0.3 mm 3 mps 750 mmHg 91%

    31 March, Friday

    Time Temperature Precipitation Wind Pressure Humidity
    00:00 +28°C° 0.3 mm 3 mps 750 mmHg 92%
    01:00 +27°C° 0.3 mm 3 mps 750 mmHg 93%
    02:00 +27°C° 0.2 mm 3 mps 750 mmHg 92%
    03:00 +27°C° 0.2 mm 2 mps 750 mmHg 91%
    04:00 +27°C° 0.2 mm 2 mps 750 mmHg 90%
    05:00 +27°C° 0.1 mm 2 mps 750 mmHg 88%
    06:00 +27°C° 0.1 mm 2 mps 751 mmHg 86%
    07:00 +27°C° 0.1 mm 2 mps 751 mmHg 84%
    08:00 +28°C° 0 mm 2 mps 751 mmHg 76%
    09:00 +30°C° 0 mm 3 mps 752 mmHg 68%
    10:00 +33°C° 0 mm 3 mps 752 mmHg 60%
    11:00 +34°C° 0 mm 3 mps 751 mmHg 55%
    12:00 +36°C° 0 mm 2 mps 751 mmHg 51%
    13:00 +36°C° 0 mm 1 mps 750 mmHg 46%
    14:00 +37°C° 0 mm 2 mps 750 mmHg 47%
    15:00 +36°C° 0 mm 2 mps 749 mmHg 49%
    16:00 +36°C° 0 mm 3 mps 749 mmHg 50%
    17:00 +34°C° 0 mm 2 mps 750 mmHg 57%
    18:00 +31°C° 0 mm 2 mps 750 mmHg 64%
    19:00 +29°C° 0 mm 2 mps 751 mmHg 72%
    20:00 +28°C° 0 mm 2 mps 751 mmHg 76%
    21:00 +27°C° 0 mm 1 mps 752 mmHg 81%
    22:00 +27°C° 0 mm 1 mps 752 mmHg 85%
    23:00 +26°C° 0 mm 2 mps 752 mmHg 82%

    1 April, Saturday

    Time Temperature Precipitation Wind Pressure Humidity
    00:00 +26°C° 0 mm 2 mps 752 mmHg 78%
    01:00 +26°C° 0 mm 3 mps 751 mmHg 75%
    02:00 +25°C° 0 mm 3 mps 751 mmHg 70%
    03:00 +24°C° 0 mm 3 mps 751 mmHg 65%
    04:00 +22°C° 0 mm 3 mps 751 mmHg 60%
    05:00 +22°C° 0 mm 3 mps 752 mmHg 61%
    06:00 +22°C° 0 mm 3 mps 752 mmHg 63%
    07:00 +21°C° 0 mm 3 mps 752 mmHg 64%
    08:00 +25°C° 0 mm 3 mps 753 mmHg 58%
    09:00 +27°C° 0 mm 3 mps 753 mmHg 52%
    10:00 +30°C° 0 mm 3 mps 753 mmHg 46%
    11:00 +31°C° 0 mm 3 mps 752 mmHg 44%
    12:00 +34°C° 0 mm 3 mps 752 mmHg 42%
    13:00 +35°C° 0 mm 3 mps 751 mmHg 39%
    14:00 +35°C° 0 mm 3 mps 751 mmHg 41%
    15:00 +34°C° 0 mm 3 mps 751 mmHg 42%
    16:00 +34°C° 0 mm 4 mps 751 mmHg 44%
    17:00 +31°C° 0 mm 3 mps 751 mmHg 55%
    18:00 +28°C° 0 mm 3 mps 752 mmHg 66%
    19:00 +26°C° 0 mm 2 mps 752 mmHg 77%
    20:00 +26°C° 0 mm 2 mps 752 mmHg 83%
    21:00 +25°C° 0 mm 2 mps 753 mmHg 88%
    22:00 +25°C° 0 mm 2 mps 753 mmHg 93%
    23:00 +24°C° 0 mm 2 mps 753 mmHg 94%
    Show more